Theta_e
302 302 303 303 303 303 303 302 303 303 303 304 304 306 313 320 321 321 326 327 325 325 323 322 322 320 320 322 321 324 324 324 325 326 328 329 329 329 330 330 331 330 331 331 330 330 328 327 328 327 328 331 331 332 332 331 332 331 330 331 333 332 330 325 323 328 331 331 333 333 331 331 330 329 331 330 328 327 324 325 327 323 320 322 320 318 325
302 302 302 302 303 303 303 302 303 303 304 304 305 309 314 318 317 318 323 325 324 323 322 322 321 322 322 322 322 323 324 323 325 325 327 329 328 328 328 329 330 330 331 332 333 329 326 327 329 329 330 330 331 332 332 331 331 331 330 332 332 328 328 326 322 323 325 326 328 329 330 329 327 329 331 329 331 331 327 330 333 325 321 323 321 319 326
302 302 302 303 303 303 303 303 302 303 304 305 307 310 313 317 318 317 318 323 325 323 324 323 323 324 323 322 323 323 323 324 325 327 328 328 329 329 328 328 329 330 331 331 332 332 328 327 329 328 329 331 331 331 332 331 331 332 335 336 331 329 331 329 321 318 320 321 322 323 325 328 328 329 330 330 332 331 327 328 327 322 324 327 323 321 329
301 301 302 302 303 303 303 303 302 303 304 305 308 311 313 317 322 322 320 322 323 323 324 323 324 325 324 325 325 322 323 324 325 327 328 329 330 329 329 328 328 329 330 330 331 332 331 330 329 330 329 330 331 332 332 332 333 338 338 334 333 333 332 333 331 324 322 324 329 330 329 327 324 326 328 329 332 331 331 326 323 326 328 326 327 331 331
300 301 301 302 303 303 303 303 303 302 303 306 310 313 316 319 323 325 324 324 324 322 323 322 322 324 326 328 327 325 325 325 326 328 328 328 329 328 328 328 328 328 330 330 330 330 332 331 331 330 329 329 330 331 332 331 336 341 337 331 333 332 327 330 336 333 328 331 334 333 331 327 325 326 327 329 331 331 329 324 328 338 330 322 335 344 333
299 300 300 301 302 303 303 303 303 302 303 307 312 316 320 321 321 322 324 324 325 323 323 322 322 322 324 327 328 328 326 325 326 327 327 328 328 327 328 327 327 328 329 328 329 330 331 332 332 332 332 332 331 330 330 332 338 338 333 331 333 330 326 328 330 330 329 331 331 331 332 330 329 330 328 329 330 328 327 326 332 340 329 326 341 349 337
298 299 299 300 302 302 303 303 303 303 303 308 315 319 320 318 316 318 320 322 323 323 325 326 326 324 325 327 327 328 329 328 325 326 327 327 327 327 328 327 327 328 329 329 332 332 331 332 337 340 339 338 333 330 330 332 336 333 330 333 333 329 327 331 330 327 327 329 329 331 331 329 329 330 330 330 331 328 328 329 330 334 334 334 345 348 341
297 298 298 300 301 302 303 303 303 303 302 308 316 319 318 316 314 316 318 320 321 324 326 328 328 326 327 329 328 328 330 331 328 326 326 327 327 327 327 327 328 328 329 330 331 333 334 335 338 339 339 337 335 333 331 330 331 331 329 331 333 328 326 332 331 325 325 330 330 329 330 329 328 330 331 331 331 329 329 330 329 332 333 333 341 344 342
297 297 298 299 300 301 302 303 303 302 302 307 312 315 316 315 313 314 316 319 321 323 325 327 327 327 328 331 331 329 330 331 328 327 327 327 327 328 327 327 328 327 328 329 329 332 336 336 336 335 335 336 334 333 333 332 332 331 330 330 332 330 328 331 330 323 320 327 329 328 329 329 325 325 328 329 329 328 329 331 331 331 333 336 334 333 336
297 297 297 298 298 300 301 303 303 303 303 305 308 312 316 315 311 311 315 320 322 322 323 325 326 326 327 329 329 327 327 328 327 330 332 330 328 330 331 330 330 330 330 332 332 333 334 334 333 333 333 334 334 333 335 334 332 332 333 331 332 332 329 328 326 321 320 326 329 327 328 325 322 323 328 330 330 331 331 331 333 334 336 335 331 330 338
296 297 297 297 298 298 300 302 303 303 303 305 307 310 314 315 312 312 317 320 323 323 322 322 324 325 325 326 327 327 328 327 327 331 333 332 330 330 332 331 331 332 333 333 332 332 332 332 331 332 332 332 332 333 334 334 333 333 333 332 332 334 331 329 328 322 320 326 328 327 325 321 323 329 332 332 331 331 330 331 333 335 337 337 334 335 340
297 297 297 297 297 297 299 301 302 303 303 304 306 309 313 314 313 313 317 320 323 324 324 323 323 324 326 326 326 328 329 329 328 329 331 330 330 331 331 330 331 332 332 332 331 331 332 332 331 331 332 331 331 332 331 333 333 333 333 333 333 333 332 332 331 326 323 325 327 325 322 324 330 333 333 332 332 332 332 333 333 335 337 340 337 336 338
297 297 297 297 297 297 298 300 302 303 303 304 306 310 312 314 312 312 315 318 320 322 323 324 324 324 325 326 326 327 329 329 328 328 329 329 330 331 330 331 330 329 329 329 331 332 333 333 332 332 331 331 331 330 330 331 332 332 334 333 332 335 334 331 330 327 324 323 323 322 326 331 332 334 334 332 333 333 332 331 334 335 337 337 337 335 335
298 297 297 297 297 297 298 299 301 303 303 303 306 310 313 313 312 311 313 316 318 320 321 322 322 322 323 324 324 325 326 327 327 327 327 328 329 330 330 330 328 327 328 328 331 332 333 332 331 330 331 331 330 329 330 330 330 331 331 332 333 335 333 331 331 329 326 321 320 324 330 332 331 333 334 334 335 335 333 331 333 337 336 334 336 337 335
299 297 297 297 297 297 297 299 301 302 303 303 304 310 313 313 312 311 311 314 315 318 319 319 318 318 320 321 321 321 322 325 325 326 326 326 327 329 328 328 327 326 327 328 330 332 333 330 326 324 326 326 325 326 330 330 330 331 331 332 332 334 336 338 335 331 328 323 320 324 325 325 329 334 336 336 335 335 336 333 332 337 336 332 335 339 337
300 298 297 296 297 297 297 299 301 302 303 303 304 309 312 313 313 311 310 312 315 318 320 319 316 315 317 319 319 318 319 322 324 326 327 326 326 327 327 326 325 325 326 329 330 332 331 329 325 323 323 325 325 325 328 328 328 330 331 332 331 333 337 340 334 328 327 324 322 322 322 324 333 338 336 334 334 334 335 331 328 333 336 333 333 337 337
302 300 298 297 297 297 297 299 301 302 303 303 304 308 311 312 312 312 310 312 314 317 319 318 314 314 317 319 320 320 320 322 324 324 326 327 327 327 326 325 324 325 326 328 330 331 330 328 326 323 324 328 327 325 326 326 325 326 330 331 332 332 335 334 328 324 326 325 323 323 324 329 336 336 333 333 335 337 334 327 327 337 338 334 333 335 335
303 302 301 299 297 297 298 300 302 303 303 303 304 308 312 312 312 312 311 312 314 316 319 317 313 312 315 316 316 318 319 320 320 320 322 325 327 327 326 325 325 325 327 328 330 330 329 327 326 324 324 329 328 325 325 325 323 326 331 331 330 330 331 330 327 324 324 324 322 322 327 335 337 333 333 334 332 332 330 327 334 341 337 333 333 333 334
304 303 302 301 299 298 298 300 303 304 304 303 303 306 310 311 312 312 311 311 313 315 316 316 314 313 314 314 315 317 319 320 320 319 321 323 324 324 323 324 324 324 326 328 329 330 327 326 328 327 325 327 329 327 326 325 326 327 328 328 327 329 329 327 327 325 324 324 323 322 327 336 337 331 332 334 331 330 330 333 337 338 334 333 333 333 333
303 303 303 302 301 298 298 300 303 304 305 304 302 305 309 311 311 312 311 311 312 312 312 314 315 313 312 312 314 315 317 318 318 319 321 321 321 322 323 324 324 325 327 329 330 329 327 326 329 329 325 326 331 330 325 328 329 328 328 329 328 328 327 324 325 326 325 324 323 322 327 335 336 333 337 339 338 337 338 337 335 334 334 334 333 332 333
303 303 303 302 302 300 298 300 303 305 305 305 303 304 309 312 311 311 311 311 311 312 312 314 314 311 309 311 311 311 313 314 315 317 318 318 319 320 323 327 329 328 330 331 330 330 328 328 329 329 327 329 334 333 329 328 330 331 333 333 333 333 329 325 329 332 328 325 325 328 332 336 334 335 338 339 340 340 339 337 335 335 334 334 333 334 333
303 303 303 303 302 300 299 300 303 305 305 305 304 304 307 310 310 310 310 310 311 312 312 310 309 309 310 311 310 310 310 311 312 314 314 315 316 317 321 326 328 328 328 329 331 331 331 330 331 331 331 333 334 335 334 329 327 332 336 333 335 341 338 333 336 339 333 332 334 335 336 336 334 336 337 336 336 336 335 335 336 336 336 335 333 334 334
302 302 302 303 302 301 299 300 302 304 305 305 305 304 305 307 309 310 310 310 312 313 313 312 312 314 315 315 313 311 310 310 310 311 312 313 315 319 323 325 324 324 327 328 328 328 329 330 331 331 332 332 332 334 335 332 330 333 336 333 336 341 340 336 339 339 336 337 338 335 335 335 334 333 334 333 334 334 335 336 337 336 335 334 333 334 336
302 302 302 302 302 301 300 300 301 303 305 305 305 304 305 307 309 309 309 311 313 314 315 316 316 316 316 315 313 311 311 311 311 310 309 311 315 320 324 322 320 323 326 325 324 325 327 328 330 331 331 332 332 333 335 337 336 335 333 332 334 334 333 333 336 335 335 337 338 335 334 335 334 333 332 332 333 333 334 335 335 334 333 333 333 334 335
302 302 302 302 302 302 301 300 300 302 305 306 305 304 306 308 309 308 309 311 312 313 314 317 317 315 312 311 310 310 311 312 312 310 309 310 313 318 320 319 319 321 322 322 323 325 326 327 329 330 331 331 331 332 335 338 338 335 334 335 335 332 332 335 336 335 335 337 337 333 331 333 333 332 332 332 331 332 333 332 332 332 332 333 334 333 332
302 302 302 302 302 302 301 300 301 302 304 305 305 304 305 308 309 308 309 310 311 312 314 317 316 313 311 310 310 311 310 310 311 312 311 311 312 314 316 317 318 318 319 321 323 325 326 327 328 328 330 330 330 330 331 335 335 334 334 335 332 332 334 336 336 336 337 336 337 335 335 335 333 331 331 332 332 332 332 331 330 331 331 332 332 332 333
303 302 302 302 302 302 301 301 301 302 304 305 305 304 305 307 309 309 309 310 311 313 315 317 316 315 313 312 311 310 309 309 311 312 312 311 311 312 313 315 316 316 319 321 323 324 325 325 325 327 328 328 329 328 328 330 331 331 332 332 330 334 337 335 335 336 336 335 334 335 338 338 334 330 330 331 331 332 332 330 330 331 330 330 331 332 334
303 302 302 302 302 302 302 301 301 302 304 305 304 304 306 307 308 308 308 309 310 312 314 314 315 315 315 313 311 310 310 310 310 311 312 312 311 311 312 313 314 315 318 320 321 323 324 323 324 326 326 326 327 328 327 328 328 329 330 329 328 334 335 333 333 334 332 330 329 331 334 334 332 329 329 330 331 332 331 329 330 330 329 330 330 331 333
302 302 302 302 302 302 301 301 301 302 304 304 305 306 308 308 308 309 309 309 309 310 312 313 315 316 315 313 312 311 311 310 310 311 311 312 312 312 312 312 312 313 316 318 320 323 324 324 324 325 325 324 325 327 325 326 327 327 328 328 328 329 329 329 329 329 327 325 326 327 328 328 328 328 328 329 329 331 330 329 330 329 329 329 328 328 331
302 302 302 302 302 302 301 301 301 302 303 304 305 308 310 309 308 308 308 308 308 309 311 312 315 316 316 314 313 312 312 312 312 312 312 312 312 313 313 313 313 313 314 316 318 320 321 322 323 323 322 322 323 325 324 324 324 325 325 326 327 326 326 326 325 325 323 323 323 323 323 325 325 325 326 327 327 329 329 328 328 327 327 327 327 327 328
302 302 302 301 301 301 301 300 301 302 303 304 306 309 311 310 310 309 308 307 306 308 310 312 314 315 316 314 312 312 312 313 313 313 313 313 313 313 313 313 313 314 314 315 316 317 318 318 319 320 320 319 319 321 322 321 323 324 324 325 325 325 325 324 323 323 322 321 321 321 322 322 323 324 325 326 327 326 326 326 326 326 325 325 325 326 326
301 302 302 301 301 301 301 300 301 302 303 305 307 309 309 309 308 308 307 306 306 308 311 313 314 316 317 315 312 311 311 312 313 314 314 314 313 314 313 313 313 314 314 314 315 316 317 318 317 318 318 318 318 318 318 319 320 322 322 323 322 322 322 322 321 321 320 318 318 319 320 322 324 325 325 324 324 324 324 324 324 324 324 324 325 325 325
301 302 302 301 301 301 301 301 301 302 303 305 306 307 307 307 306 305 306 305 306 308 311 312 313 316 317 314 312 311 311 312 314 314 314 314 314 314 313 312 313 314 314 313 314 315 316 317 316 316 317 318 318 317 317 318 318 319 320 320 319 320 320 320 319 318 317 318 319 321 322 323 323 322 322 322 322 322 322 323 323 323 323 323 324 324 324
301 301 301 301 301 301 301 301 301 302 303 304 306 307 308 308 307 305 304 304 306 308 310 311 313 316 316 313 310 310 311 314 316 316 315 316 315 315 315 314 313 313 314 314 314 314 315 316 316 316 317 317 317 317 317 317 317 317 317 317 317 318 318 319 318 318 318 320 322 322 322 321 321 320 321 321 322 322 323 324 324 324 324 323 323 323 323
301 301 301 302 301 301 301 301 301 303 305 306 307 308 308 307 306 305 304 304 307 311 312 312 313 315 316 314 313 312 312 314 315 316 317 316 314 315 317 317 313 313 315 314 314 315 316 316 316 317 317 318 318 317 317 317 317 317 317 316 316 317 317 318 319 320 321 322 322 321 320 320 320 321 321 322 324 324 325 324 325 324 324 324 324 324 324
301 301 301 301 301 300 301 302 303 305 307 308 308 308 306 305 306 306 306 306 308 311 313 313 314 315 315 315 315 313 311 312 314 315 315 314 314 315 317 318 317 317 317 316 315 315 316 316 316 317 316 317 318 318 318 318 318 318 318 318 318 318 318 318 319 320 321 322 321 320 320 320 321 322 323 325 325 325 324 323 323 323 324 324 323 323 324
302 301 301 301 301 301 303 305 305 306 307 308 307 306 305 305 306 308 308 308 307 309 311 313 314 314 315 315 315 313 311 312 314 314 314 314 315 315 315 317 319 318 318 318 318 317 317 317 316 316 317 318 318 318 319 319 319 319 319 319 318 319 319 319 320 321 322 322 321 321 322 322 323 324 325 325 324 324 323 323 323 323 323 323 322 323 323
302 301 301 302 303 304 306 307 306 306 306 306 306 306 307 308 309 310 310 309 309 309 310 311 313 313 314 315 314 312 312 313 314 314 314 315 316 315 316 316 318 317 317 318 319 318 317 318 318 317 318 318 318 318 319 318 318 318 318 318 320 320 321 321 322 322 323 323 322 322 323 323 323 323 323 323 323 323 323 323 324 323 323 323 323 324 325
302 301 302 303 305 306 306 307 306 306 306 306 305 307 309 310 310 310 310 310 311 311 310 310 312 313 314 314 313 312 313 314 315 315 315 314 315 316 316 316 317 317 316 317 319 318 318 319 319 318 319 319 318 320 320 320 319 319 319 321 322 322 322 323 323 323 323 322 321 321 321 321 322 321 321 321 321 322 323 324 323 323 323 323 324 324 325
302 303 303 304 305 306 306 306 305 305 306 307 307 309 310 309 309 310 311 309 310 311 310 311 312 312 312 314 314 313 313 313 315 317 316 315 315 316 316 317 317 317 316 317 319 319 318 319 319 319 319 320 321 322 322 321 322 322 322 322 323 322 322 322 322 322 321 320 320 320 320 319 319 319 319 319 319 320 322 323 323 323 323 323 323 324 324
303 304 304 305 305 306 306 306 305 306 307 308 307 308 309 309 309 310 310 309 309 311 311 311 312 312 312 312 314 315 314 313 314 316 317 316 316 316 316 318 318 317 316 318 319 319 320 320 318 318 320 321 322 321 321 322 321 322 321 322 322 322 322 321 321 320 320 320 320 320 320 319 319 318 318 318 318 319 320 321 322 323 322 322 322 323 323
303 304 305 305 306 306 306 307 307 307 307 308 307 307 308 309 309 309 310 310 310 311 311 311 312 313 311 311 313 315 314 314 315 315 315 316 316 315 316 318 318 317 317 318 318 319 319 318 317 318 320 321 321 321 321 321 321 321 321 321 321 321 321 320 320 320 320 319 320 320 320 320 320 320 320 319 319 319 320 321 322 323 323 322 322 322 323
303 304 305 305 306 306 306 307 307 307 307 306 306 306 307 308 309 309 309 310 311 312 311 311 312 312 311 311 313 313 312 313 315 315 315 316 316 315 316 317 317 317 317 317 317 317 318 317 319 321 322 322 321 322 322 322 321 322 321 321 321 321 320 320 319 319 319 319 319 320 320 320 320 321 321 321 321 321 321 322 322 323 323 322 322 323 323
303 304 305 305 306 306 306 306 307 307 306 305 306 307 308 308 309 309 309 310 312 312 311 311 312 313 312 312 313 313 312 313 315 315 315 315 315 315 315 316 316 316 316 316 317 317 317 319 321 323 322 322 322 322 321 322 322 321 321 321 320 320 319 319 319 319 319 319 319 319 319 319 319 320 320 320 321 321 321 322 323 323 324 324 323 323 323
304 304 305 305 305 305 306 306 306 306 307 306 306 307 308 308 309 309 310 311 311 312 312 311 312 313 313 313 314 314 314 314 314 314 315 315 315 314 315 315 315 316 316 316 316 316 317 319 322 322 321 321 321 321 321 321 321 321 321 321 320 320 320 320 319 319 319 319 319 319 319 319 319 319 319 320 321 322 322 323 323 324 324 325 325 325 326
304 304 305 305 305 305 306 305 305 306 307 307 307 308 309 309 309 311 311 311 311 311 311 311 312 313 314 314 314 314 314 314 314 315 315 314 314 314 315 315 315 315 315 316 316 316 317 320 321 320 320 320 320 320 320 320 321 321 321 321 320 320 320 319 319 319 319 319 319 319 319 320 320 320 321 321 322 322 322 323 324 324 326 326 326 327 330
304 305 305 305 304 304 305 306 306 306 307 307 308 308 309 309 310 311 311 311 311 312 312 312 312 314 315 314 314 314 314 313 314 314 314 314 314 315 315 315 315 315 316 317 317 316 318 320 320 319 319 319 319 319 320 320 320 320 320 319 320 319 319 319 319 319 319 319 319 319 320 320 320 320 321 321 321 322 322 322 322 323 324 325 326 328 330
305 305 304 304 304 305 306 306 306 307 308 308 308 308 309 309 310 310 310 311 312 312 312 312 313 314 314 314 314 314 314 314 314 314 314 314 314 314 312 313 314 315 316 317 318 318 319 320 319 319 319 319 318 319 320 320 320 320 320 319 319 319 319 319 319 319 319 319 319 319 320 320 320 320 321 321 320 320 319 320 320 321 322 322 324 327 329
304 305 305 305 305 306 306 306 307 308 308 309 309 308 308 309 310 310 311 311 312 312 312 313 313 313 313 314 313 313 313 313 313 312 313 313 313 312 312 313 314 316 317 317 318 319 319 319 318 318 318 319 319 319 320 320 320 320 320 320 319 319 319 319 319 319 319 319 319 319 319 320 320 320 321 320 319 319 320 320 320 320 321 322 324 326 327
304 305 305 305 306 307 307 306 307 308 309 309 309 309 309 309 309 310 311 312 313 313 313 313 313 312 313 312 311 310 312 313 312 312 313 313 313 314 314 315 316 318 318 318 318 318 318 318 318 318 319 319 319 320 321 321 321 321 320 319 319 319 319 319 320 319 319 320 320 320 320 320 320 320 319 319 319 320 322 322 321 320 321 322 323 325 326
304 305 305 306 306 307 307 307 307 308 309 309 310 310 309 308 309 311 311 312 313 313 312 313 312 311 311 310 309 309 311 312 312 312 312 313 313 314 315 315 317 318 319 318 318 318 318 318 318 320 320 320 319 320 321 321 321 321 320 320 320 320 319 320 320 320 320 320 319 320 320 320 319 317 317 318 319 321 322 321 320 320 321 321 322 324 325
304 304 305 306 307 307 308 308 308 309 309 309 309 309 309 308 310 311 312 312 312 312 312 312 311 310 309 309 310 311 312 313 312 312 312 314 315 315 316 317 318 318 318 318 318 318 319 319 319 320 321 320 319 320 321 321 320 320 320 320 320 321 321 321 321 320 320 320 320 320 320 320 318 317 317 319 321 322 322 320 319 319 320 320 320 321 323
Wind_Speed
21 22 22 22 22 23 23 22 22 25 27 27 26 24 15 10 13 10 8 14 14 12 8 9 10 9 13 17 20 21 18 16 17 18 19 15 12 12 12 13 13 13 13 14 15 15 13 14 16 14 14 17 16 19 27 27 21 15 12 13 16 11 4 6 8 8 11 15 14 15 17 15 13 11 12 10 10 10 10 7 4 5 9 7 5 4 3
21 22 22 21 21 22 22 21 20 22 24 26 27 22 16 17 20 19 13 13 15 13 8 9 9 10 14 17 19 23 20 18 18 16 15 12 11 12 13 13 14 13 14 15 14 14 11 14 18 16 12 15 20 24 28 26 20 14 13 12 10 8 4 5 6 6 8 11 10 12 15 13 10 11 13 15 15 15 13 8 4 5 8 7 6 5 4
20 21 21 21 21 21 21 20 19 19 19 21 22 19 18 17 15 18 18 16 17 16 12 11 10 11 16 17 18 20 20 21 21 17 14 14 13 11 13 16 16 14 15 15 14 14 13 11 17 16 14 13 18 24 25 23 22 15 14 16 12 8 5 4 6 8 9 9 8 9 10 11 10 13 16 18 20 19 13 6 5 6 6 6 7 3 4
20 21 21 20 20 20 20 19 18 17 16 17 20 18 14 11 6 9 13 16 20 19 19 19 14 10 12 13 15 18 17 19 19 15 12 15 17 15 13 17 17 16 16 15 13 13 15 12 9 13 15 11 13 21 23 24 20 5 6 11 12 7 8 9 7 7 9 8 8 11 12 11 14 16 18 17 17 17 12 7 6 5 5 5 6 5 5
19 20 21 21 20 20 20 20 17 16 13 13 17 16 10 6 6 7 5 8 16 16 18 19 13 13 13 8 10 17 19 16 14 12 12 16 19 17 15 16 15 14 16 14 12 13 14 15 12 14 17 13 13 19 23 23 13 6 4 11 11 5 8 13 11 11 14 14 11 13 14 13 13 15 17 18 17 17 14 10 7 5 6 6 8 12 13
19 20 20 21 21 20 21 20 18 16 11 9 13 12 8 6 12 16 13 8 9 8 11 15 14 17 17 10 10 16 18 17 12 11 14 18 18 14 13 16 15 14 14 12 11 12 11 13 13 10 10 10 11 15 17 15 12 6 9 14 9 6 9 13 17 18 19 19 18 16 14 13 14 14 16 18 18 20 18 14 12 8 6 5 6 11 14
19 20 20 21 22 21 21 20 19 17 10 5 9 10 9 10 14 18 18 14 12 14 16 16 13 15 15 11 13 13 14 17 14 11 12 15 17 16 13 13 15 17 15 11 9 9 8 10 11 7 8 9 6 10 11 11 14 11 14 11 7 7 8 13 17 16 17 20 21 22 19 16 16 17 19 19 20 23 20 17 19 16 12 10 8 10 10
19 20 20 21 22 22 22 20 19 18 11 5 7 9 10 13 11 15 22 19 16 19 19 15 10 11 12 10 11 12 13 16 15 13 13 13 14 16 17 16 16 17 16 13 12 7 4 8 9 10 12 10 5 6 8 9 12 13 13 10 9 9 7 10 12 10 15 21 21 20 20 18 18 18 19 21 22 22 19 17 18 16 15 16 10 8 7
19 20 20 21 22 22 22 20 19 19 14 10 10 10 13 16 13 14 17 14 12 15 14 12 8 8 8 7 8 12 14 14 11 10 12 13 12 11 16 16 14 17 16 14 12 6 3 6 8 10 10 7 5 5 5 8 11 12 12 10 10 10 8 8 9 10 12 15 16 18 18 20 22 20 21 23 20 17 15 14 15 14 12 11 7 4 4
18 20 21 21 22 22 22 20 19 18 16 14 12 12 15 19 17 14 13 10 11 12 11 9 8 7 8 9 11 13 13 14 13 6 5 13 14 11 12 10 7 12 11 4 5 8 7 8 9 12 12 8 6 6 5 9 11 9 9 8 8 9 8 8 10 10 10 13 18 18 15 16 16 15 18 20 16 15 15 15 16 16 9 4 4 4 3
18 19 20 21 21 21 21 20 18 17 16 14 13 14 16 19 19 18 13 8 10 11 9 8 8 9 10 11 11 13 12 11 12 7 3 11 12 9 9 9 6 6 2 3 8 12 11 11 10 12 14 12 9 8 8 11 10 5 5 8 9 9 8 7 7 7 8 13 16 13 10 10 9 8 12 15 14 15 17 17 18 14 6 4 4 3 3
17 18 19 20 20 20 21 19 17 16 13 12 12 11 11 15 17 16 11 6 9 11 8 10 12 9 10 11 8 10 11 7 5 6 5 7 9 6 5 8 7 2 3 5 10 12 12 12 12 13 15 13 11 10 11 13 12 9 8 7 8 8 7 5 5 6 8 9 10 11 10 10 9 9 11 15 17 17 16 17 17 9 2 5 5 4 1
17 18 18 19 19 19 20 19 17 14 12 10 9 8 10 13 14 13 11 7 7 8 10 14 17 11 8 9 8 10 12 7 4 6 6 6 8 7 2 2 5 5 7 8 10 9 9 8 8 10 11 11 11 12 14 15 15 14 12 9 8 7 7 6 6 7 8 7 9 9 7 8 11 10 11 14 16 14 13 13 12 8 2 4 5 3 4
17 17 17 18 18 18 18 18 16 14 11 9 8 8 10 11 11 11 11 7 6 11 14 13 14 14 10 9 8 9 11 10 7 9 9 9 10 9 4 1 4 8 9 9 7 5 5 4 5 6 7 8 9 10 13 15 15 16 16 13 10 8 7 6 5 5 6 8 9 8 4 6 10 9 9 10 9 9 9 9 9 10 8 4 2 2 5
16 15 16 17 17 17 17 17 16 14 11 9 7 6 8 9 12 11 10 9 8 10 11 9 11 16 14 11 10 9 8 8 7 9 11 12 12 10 6 3 4 7 8 7 4 3 4 5 6 6 6 8 8 8 9 10 11 15 16 14 12 10 7 4 2 2 5 8 9 9 7 6 7 8 9 10 11 11 9 8 7 7 6 7 7 4 5
14 13 14 15 15 16 16 16 15 13 11 10 7 3 6 8 13 12 11 10 6 5 10 16 18 17 14 11 12 11 8 7 7 6 8 9 10 12 8 3 4 7 7 6 5 4 4 6 7 7 8 10 9 8 8 8 8 11 14 15 14 12 8 5 4 5 6 8 8 7 8 6 5 7 10 13 14 12 10 9 7 3 3 8 10 7 4
14 13 13 14 14 14 15 15 15 13 11 10 7 2 6 6 12 13 11 10 8 11 15 18 19 15 11 8 9 10 9 9 9 7 5 4 7 10 6 1 5 8 8 6 4 5 6 7 7 8 8 9 10 9 9 9 9 9 11 13 13 11 8 7 8 8 8 9 8 6 6 4 2 4 8 12 13 9 8 9 4 2 5 8 8 8 6
15 13 13 14 14 14 14 14 13 12 11 9 6 3 5 6 11 12 11 11 10 11 12 14 15 13 10 9 9 11 11 10 8 8 9 6 4 6 7 7 6 6 7 6 4 6 7 7 8 8 8 8 10 9 7 8 9 9 9 9 8 8 8 7 8 9 10 10 10 8 6 2 4 7 8 10 13 10 6 6 2 5 5 2 1 3 3
16 15 14 13 13 13 13 13 12 12 11 9 6 4 1 4 9 11 11 11 9 11 14 14 12 11 12 12 11 11 10 9 7 8 7 4 8 16 15 9 5 4 5 5 6 6 6 7 8 7 7 9 8 7 7 8 9 9 10 9 6 5 7 8 9 10 9 9 9 8 5 0 4 8 9 6 6 6 2 2 2 4 4 5 2 2 3
16 15 14 12 13 13 12 12 11 10 10 9 8 4 1 3 5 10 10 11 12 16 17 11 8 11 13 12 11 11 10 9 8 8 6 6 14 18 10 5 3 5 5 5 5 6 6 7 7 5 7 7 4 4 7 9 10 9 8 7 6 6 7 8 8 7 7 9 8 7 5 3 3 7 6 7 3 3 1 3 2 2 4 5 0 2 1
16 15 14 12 12 12 12 11 11 10 9 9 7 5 1 5 6 10 10 11 13 14 12 8 9 15 15 12 11 11 9 9 9 9 8 10 13 11 5 2 4 3 3 4 4 5 4 6 5 5 7 5 0 1 5 6 8 6 2 2 3 3 4 5 4 3 5 6 4 2 3 1 6 6 4 5 6 5 2 4 4 5 8 8 6 4 4
15 14 13 12 12 12 11 12 10 10 10 9 7 8 6 6 8 11 13 14 14 16 17 16 15 16 14 12 11 9 9 9 8 7 8 11 13 12 10 7 7 7 6 6 5 3 3 4 4 3 4 3 1 1 4 5 5 2 3 1 3 2 1 1 1 3 3 1 3 3 5 5 9 10 6 5 7 6 5 6 6 6 9 8 8 9 8
14 14 13 12 11 11 11 12 11 10 10 9 9 9 9 7 9 13 16 15 15 18 21 20 17 15 13 10 8 7 8 8 7 5 5 7 11 10 5 7 9 8 7 8 6 5 5 4 4 4 3 3 2 3 5 4 4 3 5 3 3 2 2 2 1 2 0 2 3 5 6 8 10 8 6 8 9 8 9 10 9 8 7 4 5 8 8
13 13 13 12 12 11 11 11 12 11 9 9 9 8 6 6 10 14 15 13 12 14 14 13 13 10 5 4 5 7 6 5 6 7 6 5 7 5 5 10 11 9 8 10 8 8 7 5 6 5 3 3 3 2 0 1 4 6 6 5 3 4 6 6 2 3 2 2 1 2 1 5 8 8 8 12 12 11 11 10 9 7 5 4 5 6 7
12 12 12 12 12 11 11 11 12 10 9 9 8 7 5 5 9 12 12 11 13 12 9 8 9 5 2 3 5 4 4 4 5 5 5 5 6 6 6 10 10 8 10 12 10 9 8 6 5 5 4 3 3 2 4 3 2 5 4 3 3 4 7 7 4 1 1 1 3 6 7 8 9 8 10 10 9 10 11 9 8 7 7 7 8 8 8
11 11 11 12 12 11 11 11 11 10 9 9 9 8 6 4 7 9 9 12 15 12 9 7 4 4 2 4 3 3 4 5 4 4 4 5 6 6 7 9 9 9 10 12 10 9 8 6 4 5 5 2 2 4 2 4 5 6 3 3 3 2 4 2 2 3 2 3 7 5 5 10 11 11 12 10 7 7 9 7 6 7 8 9 10 10 10
11 11 11 11 11 11 11 10 10 10 9 9 9 9 6 3 3 6 6 9 12 8 8 7 6 3 4 6 5 5 5 4 4 4 5 5 6 6 6 7 8 10 10 9 8 8 7 5 4 6 5 2 4 4 5 2 3 4 3 5 6 1 1 3 1 3 2 2 10 9 3 6 7 8 9 7 6 5 6 6 7 8 10 11 11 11 11
11 11 11 11 11 11 10 10 9 9 9 9 9 9 6 3 3 5 5 6 9 8 9 14 18 17 13 7 5 3 3 3 4 5 5 5 5 5 5 5 7 8 9 8 7 5 5 4 4 5 4 5 5 3 6 6 6 4 3 7 6 2 1 2 3 5 3 4 9 10 6 5 5 6 7 6 4 4 4 5 7 9 10 10 11 11 12
10 10 10 10 10 10 9 9 9 8 8 8 7 8 7 3 2 4 4 5 7 10 13 16 17 14 9 4 4 4 3 4 4 4 5 5 5 5 5 5 5 6 7 7 6 5 4 5 6 3 3 4 2 4 3 4 5 4 4 4 2 10 11 9 9 9 8 9 9 8 7 5 4 5 5 4 3 3 3 5 8 10 11 12 12 11 10
10 10 10 10 10 9 9 8 8 7 7 5 5 7 5 3 3 4 6 3 5 8 11 10 9 10 9 5 5 4 5 5 4 5 5 5 5 5 5 4 4 5 6 6 6 6 5 5 6 4 3 4 2 4 3 3 4 4 3 4 9 13 13 12 13 10 8 8 8 6 8 10 10 9 9 7 4 4 4 6 10 11 12 13 13 12 11
10 9 9 10 9 8 8 7 7 7 6 4 6 8 5 4 4 4 5 4 5 7 9 9 11 13 12 6 5 5 6 6 5 6 5 5 5 5 4 5 5 5 5 6 6 7 6 4 5 5 3 5 2 3 4 4 4 3 1 6 11 11 9 8 10 10 8 7 6 4 6 8 10 10 9 8 9 9 8 9 12 14 14 14 15 14 14
9 9 9 9 8 8 7 6 6 8 6 5 8 9 6 4 4 5 7 8 7 7 8 9 9 10 5 4 5 4 5 6 6 6 5 5 5 4 4 5 5 4 5 5 4 4 5 5 6 7 3 4 2 3 4 4 5 5 4 5 7 7 6 6 7 10 11 10 9 6 4 5 6 8 10 12 14 14 13 13 13 15 15 15 16 16 17
9 8 8 8 7 7 6 6 6 8 8 7 7 6 6 8 7 6 9 9 7 7 8 7 6 6 2 3 5 4 5 6 6 6 6 5 4 4 5 5 5 4 4 4 3 3 5 5 5 6 3 4 2 3 3 3 6 9 9 8 7 4 6 7 5 6 7 7 6 6 5 7 8 10 11 13 14 14 14 13 13 14 15 16 17 17 17
9 8 7 7 7 6 6 6 6 6 7 7 6 5 6 7 7 9 10 8 6 7 8 7 6 6 3 2 5 5 4 6 7 7 6 5 4 5 5 6 4 5 5 6 5 4 4 3 3 4 4 5 5 2 2 4 7 8 9 10 9 5 4 3 3 2 2 4 5 5 6 8 9 10 10 10 10 11 11 12 12 13 14 15 15 15 16
9 8 6 6 6 5 5 5 7 7 6 7 7 7 8 9 10 10 7 4 5 6 6 6 6 5 4 5 3 5 3 6 4 3 2 3 5 6 4 4 4 4 4 5 4 4 3 3 3 3 2 3 5 3 3 5 5 4 5 6 6 5 4 4 4 4 5 5 6 7 9 9 10 10 10 10 10 10 11 13 14 14 14 14 14 15 15
8 7 6 6 5 5 5 6 7 8 7 6 6 7 9 10 9 7 4 4 6 6 5 6 6 4 3 3 1 4 3 4 0 2 0 1 4 5 5 4 4 3 5 5 4 4 3 3 2 3 2 2 3 3 2 3 3 2 3 5 5 4 3 4 5 6 6 7 8 9 10 10 10 9 9 10 10 12 13 14 15 15 15 15 15 15 15
7 6 6 4 4 6 7 7 8 9 7 6 4 4 5 4 1 1 4 7 8 8 8 7 6 6 6 4 1 0 3 2 3 3 4 2 2 4 5 5 3 3 3 4 5 3 4 5 2 4 3 2 3 2 1 2 4 4 4 6 7 6 4 4 5 5 6 8 9 10 10 10 10 10 11 12 13 14 15 15 15 15 15 16 16 16 16
7 7 5 4 5 7 7 8 10 9 6 5 4 3 3 2 1 4 7 8 7 8 9 7 7 10 10 4 1 1 2 1 3 4 3 1 1 3 5 4 0 2 2 2 3 4 4 3 2 4 3 2 4 4 3 4 6 5 4 4 5 6 7 6 6 7 8 9 10 11 11 12 13 13 14 14 15 15 15 15 15 16 16 17 17 17 17
8 7 6 6 8 7 4 4 6 6 3 3 3 3 3 4 3 4 7 8 7 7 7 7 10 12 10 3 2 1 3 2 2 2 1 1 1 1 3 1 2 1 4 2 4 3 3 3 3 3 4 3 2 1 2 4 5 4 5 8 11 11 9 8 8 9 9 9 11 13 13 14 15 15 16 16 16 17 17 16 16 16 17 18 18 17 18
9 8 7 8 9 7 3 2 5 5 4 6 6 3 4 5 4 3 6 7 5 6 7 8 10 9 6 3 0 2 4 4 4 4 1 1 2 3 3 1 2 1 4 2 3 1 3 2 2 3 2 0 3 5 4 4 5 8 12 15 15 14 11 9 9 9 10 11 14 15 15 16 17 18 18 19 19 19 18 18 18 18 18 19 19 19 19
10 7 7 8 10 7 3 3 5 4 4 6 6 3 3 5 4 4 4 5 4 6 9 9 6 4 4 5 3 2 3 4 5 6 4 1 4 4 4 1 1 3 4 0 3 1 2 2 2 2 2 5 6 4 3 5 6 7 10 13 13 12 11 11 11 12 14 15 16 17 18 19 20 20 21 21 21 21 21 20 20 20 21 21 21 21 20
10 8 7 7 6 5 4 4 5 4 2 2 3 3 3 4 4 5 5 4 3 4 8 8 4 3 5 5 0 5 5 3 3 4 3 2 3 3 3 1 1 3 1 2 2 1 2 2 2 0 5 9 8 5 6 9 9 7 9 11 11 10 11 12 14 15 17 18 19 20 20 20 21 21 21 21 22 22 22 21 21 22 22 23 22 22 20
8 7 5 3 3 4 4 4 4 3 1 1 1 2 3 4 4 4 5 5 5 4 6 6 3 4 5 2 3 6 5 2 3 3 2 1 2 2 2 1 2 2 2 2 1 3 3 2 1 5 9 12 14 13 13 13 12 11 11 11 11 12 13 15 16 18 19 20 21 22 22 22 23 22 22 22 23 23 22 22 23 23 23 24 23 22 21
5 4 3 1 2 3 3 2 2 2 2 2 3 3 4 5 4 4 4 5 4 4 5 6 5 4 3 2 2 2 3 2 3 3 1 1 0 2 2 3 2 1 3 2 3 3 2 1 4 8 10 12 14 14 14 14 15 15 14 14 14 15 17 18 20 21 22 23 24 24 25 25 24 23 23 23 23 23 23 24 23 24 24 24 23 23 22
4 4 2 1 2 1 1 1 1 3 3 3 3 4 4 4 4 3 4 5 5 4 4 5 6 5 4 2 1 1 2 1 1 2 1 0 2 2 1 1 2 2 2 3 4 3 1 3 6 8 11 13 14 15 15 16 16 17 18 18 19 19 20 21 22 23 24 25 25 25 26 26 26 25 24 23 22 23 24 23 23 24 25 25 25 24 20
4 5 3 1 1 2 3 1 2 3 3 3 5 4 2 1 3 3 3 3 4 5 4 3 4 5 4 1 1 1 2 2 2 0 1 1 3 2 1 2 2 2 3 4 4 2 1 4 6 9 13 15 16 18 18 18 18 19 20 21 21 22 22 22 23 23 23 23 24 24 24 24 24 24 23 23 23 24 24 24 24 26 26 26 28 24 14
4 5 3 1 1 3 4 3 3 3 2 3 4 2 2 3 3 3 5 4 4 4 4 2 3 3 2 2 2 2 3 3 1 2 1 2 3 1 1 1 3 3 3 4 3 1 3 7 10 13 14 15 16 18 18 18 19 20 20 21 22 23 23 23 23 22 22 22 22 22 22 22 22 22 22 22 23 23 24 24 26 26 27 28 27 18 8
4 4 3 1 1 3 4 4 5 4 3 4 4 1 2 3 4 4 5 4 3 3 3 2 1 2 2 2 1 2 1 1 0 2 1 2 2 1 1 2 4 4 3 2 2 4 6 10 13 15 15 15 16 17 18 18 19 19 20 22 22 22 22 21 21 21 21 21 22 21 21 20 20 20 19 21 23 24 25 25 25 25 25 24 18 8 8
3 3 3 3 3 4 4 4 4 3 3 4 4 1 1 2 3 6 6 3 2 2 3 2 0 0 2 2 2 2 2 1 1 2 2 2 2 1 2 4 3 2 1 3 4 6 9 12 13 14 14 15 15 16 16 17 17 18 19 21 21 21 20 20 20 20 20 20 20 20 19 19 19 18 17 19 21 21 20 21 21 19 17 14 9 8 8
4 4 4 4 3 3 3 3 4 3 3 3 3 2 2 2 3 5 4 3 3 3 2 2 1 1 1 2 1 1 2 2 2 2 3 4 4 4 4 4 2 2 4 5 6 8 10 11 12 13 14 14 14 14 15 16 17 17 18 19 18 17 17 16 17 18 18 18 18 18 17 17 18 17 16 16 16 13 12 13 13 10 9 9 7 6 7
4 4 4 4 4 3 4 4 3 1 1 2 2 1 1 2 4 3 2 1 2 2 2 3 3 2 2 1 1 1 1 2 3 4 4 4 3 3 4 3 3 5 6 7 8 9 9 9 10 12 14 14 14 15 15 15 16 17 18 18 17 18 17 15 14 15 15 15 15 15 14 13 15 15 13 11 11 9 7 7 6 4 5 7 5 2 3
5 3 4 4 4 3 5 7 7 3 1 1 1 1 2 3 3 2 1 1 2 2 1 2 3 3 2 1 1 1 1 2 3 4 4 1 1 3 4 4 5 6 8 9 9 8 8 9 11 13 13 14 15 15 15 15 16 18 18 17 17 18 19 17 16 14 13 13 13 13 12 11 12 11 9 7 5 4 4 5 5 5 4 3 2 2 2
Wind_Direction
335 334 333 335 336 337 341 342 342 338 333 333 339 343 333 282 275 275 204 188 201 206 222 234 218 225 235 231 238 244 246 248 249 248 244 239 231 230 240 248 249 261 269 267 255 232 202 194 214 224 207 204 212 197 196 207 206 200 205 210 218 221 204 217 202 183 217 222 201 194 211 233 242 221 205 222 239 236 240 235 193 220 233 222 241 228 144
334 334 333 334 335 337 341 343 344 344 339 335 337 339 325 298 288 277 247 210 213 226 235 230 225 228 231 233 239 243 245 244 242 244 245 242 236 227 231 242 244 249 258 267 267 252 225 192 202 227 221 202 211 204 196 206 211 197 194 199 204 206 203 224 219 198 204 209 204 202 201 208 237 240 212 207 219 228 240 242 192 225 245 228 234 223 138
335 334 333 334 334 335 339 343 345 344 340 333 332 331 317 307 288 261 245 221 218 233 240 240 242 228 225 234 237 238 244 242 235 237 246 255 259 247 230 234 244 251 251 257 269 277 270 217 194 216 226 204 207 205 195 206 220 206 187 194 200 202 195 204 222 218 205 195 203 220 213 195 210 242 234 213 211 218 226 236 207 207 230 229 234 230 124
336 336 335 334 334 334 337 341 341 343 340 327 326 327 311 303 292 251 238 220 219 232 241 247 257 249 235 236 238 239 241 234 226 226 237 245 254 264 251 232 233 239 240 250 264 274 280 266 214 210 223 213 204 205 197 202 215 201 129 186 210 215 204 211 224 231 230 217 199 214 232 220 199 213 235 238 235 227 217 222 224 186 176 200 210 212 185
337 339 339 336 336 335 337 339 338 341 340 321 322 322 296 278 298 302 304 242 226 225 231 239 248 251 248 249 250 248 246 234 211 206 230 237 239 256 262 242 233 231 230 243 266 267 269 275 258 219 217 222 208 203 205 200 184 79 94 196 214 237 223 223 222 225 242 249 230 213 224 236 219 207 221 235 246 251 244 235 226 174 169 201 192 198 209
340 342 342 341 340 336 337 339 337 340 339 319 322 312 270 282 302 308 336 326 254 245 246 245 242 239 240 245 251 253 255 249 221 201 222 232 233 248 257 245 245 247 236 236 256 258 258 274 271 234 223 247 222 199 207 194 140 111 227 211 205 240 243 240 230 218 227 246 255 247 236 235 233 226 231 232 231 240 248 250 245 221 209 220 169 182 213
341 344 344 344 343 339 338 339 337 341 343 320 323 307 290 320 317 312 332 328 294 300 296 281 267 248 240 237 241 255 265 257 241 222 220 221 225 235 243 242 246 245 238 234 244 253 269 293 303 321 338 320 259 203 208 193 156 177 227 220 201 228 244 249 243 226 219 228 239 246 249 247 235 226 233 237 231 230 234 245 252 246 238 234 186 170 210
339 342 344 345 345 341 339 341 341 343 344 333 339 338 336 345 335 319 326 320 301 301 296 287 277 251 242 242 239 244 251 250 240 224 220 221 222 230 235 237 247 248 236 231 235 233 283 310 317 333 344 350 313 242 223 211 188 190 217 217 195 206 232 247 247 239 229 226 225 229 241 254 252 238 232 235 236 234 229 231 243 245 244 242 215 169 193
336 338 341 343 344 342 340 343 345 345 351 357 350 350 351 344 327 316 319 309 300 305 296 286 276 247 242 251 248 242 242 250 248 224 226 235 226 235 245 237 246 258 242 226 236 246 331 320 318 324 330 349 326 281 241 238 227 203 207 217 197 196 216 235 239 240 239 240 238 232 232 242 250 248 244 241 239 240 238 232 235 238 239 240 232 214 214
332 334 337 339 340 341 340 343 347 348 355 4 354 345 348 342 333 330 324 298 287 293 284 279 277 259 249 245 245 249 249 252 252 246 282 265 234 226 255 251 253 263 245 214 306 317 326 319 315 313 311 304 277 262 249 256 249 211 202 220 218 212 215 222 233 236 237 243 245 243 240 241 242 243 249 249 241 237 242 241 239 239 233 218 223 246 318
327 329 332 334 335 338 338 341 350 350 353 1 351 339 343 344 339 334 327 305 289 288 278 269 266 263 269 263 249 251 254 253 250 240 298 286 259 228 242 254 256 264 270 15 325 309 307 306 299 289 290 290 269 245 234 240 245 237 220 218 223 228 225 228 243 244 239 245 253 261 266 256 252 264 275 278 270 254 249 252 252 247 221 178 166 123 56
321 322 327 329 330 334 335 338 347 352 354 356 344 337 341 339 333 329 326 309 296 302 300 281 274 273 283 291 283 262 252 250 264 249 224 254 272 264 240 246 254 303 27 322 307 311 306 291 274 262 265 269 259 243 234 231 233 241 240 226 224 223 218 227 249 251 247 251 256 258 254 251 262 287 293 287 281 277 276 278 279 277 177 137 120 109 134
314 316 320 323 326 330 332 335 342 347 351 348 349 8 3 341 333 331 327 309 289 310 321 303 300 307 291 282 293 284 272 272 288 281 265 248 256 262 254 261 289 331 344 319 316 322 307 287 271 262 262 262 254 244 236 232 230 230 227 227 234 228 217 220 230 238 244 242 239 244 255 267 274 288 289 273 269 278 291 297 301 309 350 92 104 148 224
312 310 313 318 321 324 327 331 336 341 348 341 341 18 17 343 331 335 329 313 293 309 313 308 321 339 324 292 298 304 294 287 269 259 266 263 253 251 251 314 322 321 322 320 318 302 285 280 260 255 268 268 251 238 234 233 231 227 222 222 227 232 233 227 221 234 242 240 241 243 253 260 258 265 278 277 274 281 288 293 303 307 315 345 11 199 216
313 307 308 312 316 320 324 328 332 336 342 336 330 20 31 341 321 330 326 308 302 309 315 328 340 340 331 317 315 314 297 285 274 253 246 246 246 250 259 290 316 310 304 299 288 263 253 246 231 224 236 243 238 231 232 234 228 223 224 223 218 218 221 205 180 226 245 247 248 244 238 243 244 239 249 267 275 273 271 268 270 285 295 287 276 245 203
316 310 308 308 311 317 321 326 333 333 335 339 330 29 50 343 317 327 323 305 298 294 315 335 336 324 315 307 308 312 303 302 317 291 242 227 232 238 241 266 294 289 286 277 260 247 244 237 230 224 219 222 231 233 227 232 230 220 222 225 222 219 215 199 205 222 227 238 247 246 247 249 232 212 219 241 257 266 273 263 246 254 279 259 254 244 212
318 315 313 310 308 315 319 324 334 333 332 343 336 3 60 359 319 326 323 303 292 276 293 330 339 322 313 316 317 329 327 320 330 321 292 273 247 236 224 314 293 264 252 253 249 232 229 228 232 236 226 215 224 230 224 230 233 219 217 222 224 226 222 212 224 231 227 234 245 251 253 263 281 239 221 222 227 240 266 259 241 324 280 251 249 253 230
313 313 317 315 308 311 316 320 331 335 332 338 327 327 46 4 323 329 323 302 294 279 292 340 346 324 328 336 320 324 325 314 320 317 298 290 301 314 329 336 312 262 232 236 248 235 227 224 226 236 239 227 226 230 225 228 234 231 224 218 218 236 242 229 230 236 232 233 241 246 245 284 336 299 269 238 219 212 226 233 238 328 304 230 242 279 179
303 306 313 316 309 309 310 312 326 336 334 335 322 293 354 350 329 336 331 313 301 286 293 321 335 327 335 334 317 319 321 312 320 321 293 284 349 340 320 290 272 262 245 241 240 234 232 228 223 229 240 238 237 240 233 231 238 235 225 218 218 236 245 238 233 239 241 236 239 246 242 293 325 297 303 308 257 226 215 201 223 327 11 88 141 245 140
295 299 305 311 309 307 304 304 318 330 333 343 338 304 116 68 340 332 333 323 312 300 292 302 334 334 330 331 330 333 331 325 336 339 314 320 343 338 313 247 233 260 263 262 246 235 236 233 225 227 238 240 254 267 248 243 247 244 234 234 229 211 221 237 237 238 249 242 237 245 236 217 285 296 323 6 10 218 221 55 61 321 3 42 348 251 36
289 293 296 301 304 304 299 298 308 319 329 344 330 292 25 54 348 320 322 315 305 295 283 284 315 316 308 306 311 314 314 318 331 336 319 313 326 329 302 302 359 349 326 315 272 242 248 252 244 239 241 240 256 287 264 254 250 256 270 255 241 212 214 239 255 284 279 251 232 298 327 62 71 63 64 77 102 146 159 62 48 354 357 8 353 348 9
285 287 289 293 299 301 295 293 300 309 320 335 324 292 296 336 330 321 320 309 286 274 276 288 302 302 293 288 290 288 289 292 295 310 316 310 307 299 287 310 358 14 8 345 305 285 322 311 293 280 274 290 13 337 310 279 249 287 18 224 247 288 185 167 51 11 328 272 126 61 4 21 69 85 105 113 106 107 85 74 72 38 24 6 336 342 354
281 283 285 288 292 296 292 288 294 304 309 322 328 307 292 314 336 330 322 309 289 280 282 282 284 286 278 265 267 288 299 292 275 267 284 298 298 296 319 13 2 349 3 14 349 323 337 335 306 298 303 301 304 341 343 302 261 329 348 290 260 294 273 242 189 137 313 339 75 78 37 24 41 59 72 70 71 73 65 64 68 57 42 4 323 336 336
279 279 280 281 285 292 292 285 288 297 301 310 322 317 314 349 352 334 323 315 306 302 293 269 260 272 274 237 257 293 299 283 273 264 246 258 284 295 28 23 353 327 346 2 340 305 304 310 300 298 292 270 267 260 71 347 324 324 315 293 305 349 340 325 309 154 182 258 222 173 109 43 37 40 57 62 59 58 53 48 48 45 28 355 340 330 316
278 277 277 279 282 286 287 284 285 290 295 303 311 309 312 336 334 324 323 321 313 310 303 272 244 229 250 280 270 272 272 270 282 276 240 233 265 285 327 348 341 325 323 325 316 300 296 294 291 288 275 268 279 237 165 138 306 298 304 302 291 339 356 349 338 316 219 233 261 233 183 116 77 62 65 60 50 49 45 36 32 28 16 7 355 337 320
275 277 277 277 280 283 283 282 283 284 289 299 306 304 298 305 317 317 317 318 310 291 268 268 244 175 215 295 267 243 270 272 265 266 254 243 252 275 302 320 326 320 308 299 293 292 294 298 308 292 271 255 298 274 208 148 186 224 248 270 260 332 14 355 335 335 306 349 351 323 153 104 66 60 67 53 34 40 38 29 29 22 13 9 358 344 334
271 277 278 276 278 283 282 280 280 283 288 293 298 302 297 279 307 319 323 330 324 292 256 284 321 332 312 298 271 268 281 261 235 249 257 254 257 266 285 305 315 317 311 298 284 273 269 282 285 263 266 360 17 283 258 238 223 221 221 233 233 255 334 237 197 15 299 350 12 9 85 99 53 49 61 44 24 35 29 25 33 24 12 9 0 353 348
267 273 276 276 277 279 281 280 277 279 287 292 295 303 305 290 290 302 314 333 327 304 292 301 301 299 299 288 253 259 265 230 243 257 247 246 253 254 267 290 301 310 314 311 300 273 254 272 281 255 279 1 10 275 244 248 253 242 231 244 237 151 102 213 137 110 111 65 36 26 52 90 63 36 37 32 27 24 7 14 23 12 5 5 359 355 351
265 268 272 274 276 278 279 277 274 276 287 297 306 307 304 311 319 282 279 314 321 306 301 298 289 288 293 256 212 240 254 235 249 256 246 251 251 241 250 266 275 292 304 307 307 294 273 294 311 321 35 42 330 284 277 258 251 236 215 227 97 78 70 55 70 92 88 65 50 26 7 1 357 1 1 355 4 4 339 351 360 356 353 350 344 343 340
261 265 268 270 274 277 277 270 267 275 284 297 316 305 275 183 156 230 247 278 326 313 304 299 291 296 302 277 229 236 237 226 240 248 242 250 251 238 240 246 247 265 281 284 290 296 304 315 306 304 46 62 294 284 307 290 278 275 210 150 91 75 66 51 49 60 68 62 54 21 340 324 319 321 315 310 343 24 4 339 340 338 334 330 324 323 320
258 263 268 269 271 275 276 268 260 265 270 275 288 287 257 172 167 230 256 294 329 314 297 287 281 285 285 257 219 232 232 225 239 245 234 238 246 236 232 238 231 230 246 257 272 286 297 312 299 294 360 51 37 289 301 288 276 290 53 96 83 69 57 43 32 26 27 29 18 346 308 301 304 308 310 325 355 5 346 327 324 321 318 318 315 309 304
258 264 265 266 269 271 272 268 255 253 257 259 262 267 280 301 292 273 285 312 327 311 294 287 278 277 266 176 173 213 225 218 229 234 220 219 227 217 214 233 238 227 234 254 284 291 275 263 273 285 325 72 69 291 287 269 263 284 340 41 59 62 65 60 28 4 358 355 346 333 315 316 330 337 338 339 338 332 324 321 318 314 309 307 302 295 290
254 261 262 263 268 270 268 260 251 248 250 255 263 276 295 306 311 309 307 312 309 286 281 284 280 280 274 134 141 173 208 215 214 212 203 191 199 208 201 216 244 240 218 220 234 251 246 241 251 259 221 139 150 278 265 247 269 285 300 313 324 6 69 72 36 352 342 344 356 5 360 354 347 336 327 322 318 316 318 318 314 310 305 300 296 292 287
246 255 261 263 266 268 266 255 245 244 248 259 280 297 289 288 309 318 312 307 289 267 258 255 272 289 280 206 156 156 213 232 210 197 192 176 188 217 195 179 207 226 210 210 222 231 241 253 256 250 218 165 161 208 258 252 260 270 277 285 298 322 11 21 356 346 11 29 33 19 352 334 323 314 313 315 313 314 318 320 318 316 312 307 303 301 296
240 244 253 264 267 268 265 246 234 240 256 267 271 270 269 280 300 310 308 287 264 260 246 239 254 272 269 249 173 136 223 261 232 177 152 149 192 229 222 177 186 198 190 205 233 240 237 245 247 247 233 174 172 197 243 244 240 254 274 282 293 307 319 339 8 38 43 26 3 341 331 324 316 315 319 319 317 319 323 323 322 321 318 317 317 316 312
234 237 246 257 261 256 251 242 234 237 246 252 256 266 278 287 297 307 307 272 257 266 283 281 270 261 269 282 98 127 226 267 252 114 111 180 195 218 234 229 213 165 156 193 235 241 203 180 208 245 237 202 208 212 229 261 274 301 313 314 334 357 358 352 357 7 8 354 335 327 326 320 314 318 322 319 319 323 321 316 316 317 316 316 315 311 308
218 221 232 244 252 250 248 241 236 234 232 229 241 290 312 311 290 223 257 264 254 248 262 280 290 289 284 291 41 95 244 214 155 192 234 244 185 186 216 239 223 141 167 217 231 220 171 148 177 251 243 229 263 290 9 311 310 329 327 317 331 354 1 353 354 357 352 339 330 328 327 321 319 325 325 319 316 316 312 311 313 313 311 309 307 305 305
203 206 215 228 239 242 237 223 218 221 227 234 250 281 289 264 216 216 228 232 226 225 237 253 273 278 275 262 156 316 301 214 192 209 210 262 282 205 215 241 358 81 274 254 166 169 183 162 185 258 254 237 271 293 308 299 295 300 307 319 347 4 10 21 24 8 349 338 335 334 330 325 322 319 315 312 310 309 308 307 307 307 306 306 307 307 307
191 198 209 219 228 236 236 201 187 182 180 207 235 262 245 224 229 227 208 198 197 212 225 238 249 257 267 272 119 60 4 337 273 248 139 106 348 244 217 234 62 36 276 278 113 149 229 211 186 239 254 227 226 293 329 313 307 328 5 26 35 35 32 32 22 4 350 338 330 325 319 315 312 310 309 309 306 304 303 303 304 306 307 307 306 305 303
190 202 212 220 229 240 251 153 144 147 175 201 207 232 239 219 222 226 194 184 199 216 213 220 233 239 257 288 48 67 28 352 315 308 310 78 36 349 289 300 61 309 259 243 96 56 285 263 213 243 261 85 78 70 47 15 22 40 38 32 30 30 28 20 5 351 338 325 319 315 311 308 307 305 304 303 301 300 300 300 301 303 302 301 300 298 295
192 206 215 222 228 226 200 151 157 173 205 208 200 216 239 222 230 247 217 189 200 206 201 208 218 208 218 239 223 101 44 346 313 298 291 8 32 337 297 337 42 286 267 102 75 19 305 283 259 238 125 96 90 87 54 20 23 37 34 26 20 14 7 358 346 336 328 321 316 312 308 305 303 299 297 296 294 293 293 292 292 294 294 294 294 291 287
194 210 223 232 226 197 153 151 177 189 203 211 209 234 244 216 209 223 224 230 244 202 189 201 207 162 181 216 180 69 58 3 309 285 280 32 30 324 303 353 295 262 250 89 81 272 249 228 245 28 80 79 73 61 43 36 33 25 12 6 0 349 341 335 329 325 321 316 311 307 305 303 301 299 297 295 291 289 287 287 288 289 289 288 288 285 282
200 214 229 240 211 176 160 166 183 184 169 160 209 231 234 219 214 211 212 237 260 226 175 172 158 134 152 165 44 54 57 14 315 288 283 36 28 306 287 275 256 279 8 51 202 239 241 222 92 48 49 49 46 38 29 23 18 7 354 346 338 330 324 320 315 312 310 306 303 301 299 298 297 297 297 294 292 290 289 287 287 288 287 286 284 280 277
197 209 228 243 152 157 158 162 188 209 208 193 199 214 205 199 210 214 189 187 203 196 173 175 181 168 145 108 69 86 92 44 333 305 301 56 310 231 226 231 242 330 2 328 250 236 236 142 78 54 37 30 27 22 12 2 354 344 335 327 320 315 311 307 303 301 300 299 298 297 294 293 292 292 292 291 290 289 288 287 287 288 287 285 282 277 272
174 166 161 59 59 146 198 129 189 234 232 199 208 237 228 184 173 178 176 174 170 162 168 183 178 157 125 89 82 132 122 124 240 245 164 155 256 252 253 300 319 339 326 281 259 250 219 97 66 38 20 11 3 356 353 348 341 332 325 319 315 312 308 307 306 303 299 296 294 293 291 290 289 288 289 289 290 291 292 293 295 294 292 289 285 280 271
176 170 166 74 27 235 232 175 175 221 227 191 198 231 267 91 93 79 83 129 144 142 149 158 140 130 133 137 104 113 147 180 207 359 48 247 248 261 19 12 337 301 267 256 254 247 96 71 39 12 5 360 350 344 342 339 334 330 326 322 319 315 311 306 303 301 297 293 291 291 291 290 291 293 293 292 292 293 294 297 300 298 295 292 286 278 261
185 187 194 219 235 218 217 210 214 231 230 197 206 220 67 88 93 64 61 74 94 109 120 114 86 97 125 136 120 148 192 209 195 62 38 267 248 234 37 310 267 249 249 256 262 303 33 27 12 1 356 347 339 336 336 332 329 327 323 318 315 312 308 303 299 297 296 294 292 293 294 294 294 295 294 292 292 292 294 297 298 294 292 292 288 274 218
194 186 190 234 242 213 209 215 223 233 230 217 227 297 43 115 140 104 83 73 54 71 105 124 110 112 124 122 122 140 166 228 198 121 113 304 309 349 4 270 245 232 248 300 347 13 10 1 355 350 345 338 333 333 332 328 326 325 322 317 314 311 309 306 302 297 296 294 292 291 292 292 293 294 293 293 295 294 293 294 295 295 295 295 287 252 158
219 222 238 265 259 237 225 220 221 238 247 220 203 209 250 192 134 95 84 79 61 74 100 109 46 119 152 166 184 170 161 221 249 171 163 213 246 226 237 250 242 220 16 11 9 1 354 351 347 343 339 335 334 333 330 327 326 326 324 322 319 314 310 307 302 299 298 297 295 293 291 289 290 292 295 299 301 298 294 293 294 297 301 296 264 201 156
244 251 251 264 276 267 244 221 204 205 218 211 192 199 221 184 116 86 76 90 109 117 131 134 123 156 201 216 238 227 198 206 217 214 216 226 223 224 243 262 300 31 24 12 5 356 349 343 338 335 336 336 332 331 332 332 331 331 332 332 329 324 317 311 305 302 301 298 297 297 296 293 290 288 292 301 305 302 303 306 301 294 301 304 273 209 170
239 245 245 254 272 287 290 291 296 310 138 159 186 217 200 142 122 101 75 102 149 171 170 155 156 177 200 192 200 290 276 229 215 218 225 235 249 261 271 301 13 17 358 354 360 358 347 338 335 337 338 336 332 333 336 339 339 339 339 340 339 339 337 333 325 318 313 308 303 299 297 299 298 291 287 295 302 299 307 330 335 316 314 321 313 242 164
218 240 257 256 262 293 309 309 313 333 61 136 151 91 106 121 119 95 83 193 214 198 144 163 198 209 199 176 214 265 275 252 237 233 229 233 344 325 319 345 4 354 340 341 345 341 336 340 344 342 339 336 337 341 344 345 345 343 341 338 339 341 341 339 337 336 334 330 322 310 301 302 304 294 278 278 296 301 302 315 320 319 324 330 302 261 250